MORELOS 2 1 16274U 85109B 21054.62979872 -.00000193 00000-0 00000+0 0 9998 2 16274 14.6614 11.6720 0007220 50.5272 126.0372 0.99569523117999 OPTUS A2 (AUSSAT 2) 1 16275U 85109C 21054.52895228 .00000105 00000-0 00000-0 0 9993 2 16275 14.8189 355.3311 0005238 342.9934 221.8844 0.99941885 27143 SATCOM K2 1 16276U 85109D 21054.53420701 .00000087 00000-0 00000-0 0 9994 2 16276 15.0161 7.6264 0007047 270.8985 292.2864 0.99606059106273 MORELOS 2 R/B [PAM-D] 1 16293U 85109F 21054.97353127 .00000521 00000-0 37499-3 0 9996 2 16293 25.3797 199.8947 7198868 252.6727 22.7624 2.34733489234983 OPTUS A2 R/B [PAM-D] 1 16294U 85109G 21055.52095687 .00000093 00000-0 45640-4 0 9995 2 16294 25.7026 178.5351 7172764 65.2686 350.7985 2.36076100256176 SATCOM K2 R/B [PAM-D2] 1 16295U 85109H 21053.95214152 -.00000502 00000-0 13867-3 0 9992 2 16295 26.6106 39.7180 7130983 87.5516 345.1387 2.40273289229020